Time,TemperatureF,DewpointF,PressureIn,WindDirection,WindDirectionDegrees,WindSpeedMPH,WindSpeedGustMPH,Humidity,HourlyPrecipIn,Conditions,Clouds,dailyrainin,SoftwareType,DateUTC
2013-05-17 00:03:00,60.5,43.0,29.71,NNE,17,2.0,6.0,53,0.00,,,0.00,weatherlink.com 1.10,2013-05-17 04:03:00,
2013-05-17 00:18:00,59.6,43.0,29.71,North,5,3.0,10.0,54,0.00,,,0.00,weatherlink.com 1.10,2013-05-17 04:18:00,
2013-05-17 00:33:00,59.1,43.0,29.72,West,263,1.0,13.0,55,0.00,,,0.00,weatherlink.com 1.10,2013-05-17 04:33:00,
2013-05-17 00:48:00,58.7,42.0,29.73,WNW,303,3.0,9.0,55,0.00,,,0.00,weatherlink.com 1.10,2013-05-17 04:48:00,
2013-05-17 01:03:00,58.2,42.0,29.73,North,349,1.0,6.0,56,0.00,,,0.00,weatherlink.com 1.10,2013-05-17 05:03:00,
2013-05-17 01:18:00,57.6,42.0,29.73,North,5,1.0,5.0,57,0.00,,,0.00,weatherlink.com 1.10,2013-05-17 05:18:00,
2013-05-17 01:33:00,57.2,42.0,29.74,NNW,329,3.0,4.0,58,0.00,,,0.00,weatherlink.com 1.10,2013-05-17 05:33:00,
2013-05-17 01:48:00,56.6,42.0,29.73,North,5,1.0,4.0,59,0.00,,,0.00,weatherlink.com 1.10,2013-05-17 05:48:00,
2013-05-17 02:03:00,55.9,42.0,29.74,NNW,329,1.0,3.0,61,0.00,,,0.00,weatherlink.com 1.10,2013-05-17 06:03:00,
2013-05-17 02:18:00,54.9,42.0,29.74,NNW,329,1.0,1.0,62,0.00,,,0.00,weatherlink.com 1.10,2013-05-17 06:18:00,
2013-05-17 02:33:00,53.8,42.0,29.74,ENE,69,0.0,2.0,65,0.00,,,0.00,weatherlink.com 1.10,2013-05-17 06:33:00,
2013-05-17 02:48:00,53.3,43.0,29.75,NNE,32,0.0,1.0,68,0.00,,,0.00,weatherlink.com 1.10,2013-05-17 06:48:00,
2013-05-17 03:03:00,52.6,43.0,29.75,NNE,32,1.0,2.0,69,0.00,,,0.00,weatherlink.com 1.10,2013-05-17 07:03:00,
2013-05-17 03:18:00,52.3,43.0,29.75,ENE,71,0.0,2.0,70,0.00,,,0.00,weatherlink.com 1.10,2013-05-17 07:18:00,
2013-05-17 03:33:00,51.7,42.0,29.75,SE,143,0.0,2.0,70,0.00,,,0.00,weatherlink.com 1.10,2013-05-17 07:33:00,
2013-05-17 03:48:00,51.7,42.0,29.76,West,262,1.0,3.0,69,0.00,,,0.00,weatherlink.com 1.10,2013-05-17 07:48:00,
2013-05-17 04:03:00,52.1,41.0,29.76,NNE,22,2.0,5.0,67,0.00,,,0.00,weatherlink.com 1.10,2013-05-17 08:03:00,
2013-05-17 04:18:00,52.5,41.0,29.77,North,360,1.0,6.0,66,0.00,,,0.00,weatherlink.com 1.10,2013-05-17 08:18:00,
2013-05-17 04:33:00,52.5,41.0,29.78,North,351,2.0,5.0,66,0.00,,,0.00,weatherlink.com 1.10,2013-05-17 08:33:00,
2013-05-17 04:48:00,52.4,41.0,29.79,WNW,290,2.0,3.0,66,0.00,,,0.00,weatherlink.com 1.10,2013-05-17 08:48:00,
2013-05-17 05:03:00,51.9,41.0,29.79,NE,43,2.0,5.0,67,0.00,,,0.00,weatherlink.com 1.10,2013-05-17 09:03:00,
2013-05-17 05:18:00,51.7,41.0,29.80,WNW,282,1.0,5.0,67,0.00,,,0.00,weatherlink.com 1.10,2013-05-17 09:18:00,
2013-05-17 05:34:00,51.4,40.0,29.81,NNW,342,4.0,8.0,66,0.00,,,0.00,weatherlink.com 1.10,2013-05-17 09:34:00,
2013-05-17 05:49:00,51.3,40.0,29.82,North,5,3.0,8.0,66,0.00,,,0.00,weatherlink.com 1.10,2013-05-17 09:49:00,
2013-05-17 06:04:00,51.4,40.0,29.82,North,360,5.0,-999.0,66,8.68,,,0.00,weatherlink.com 1.10,2013-05-17 10:04:00,
2013-05-17 06:19:00,53.0,41.0,29.83,NNW,337,3.0,10.0,64,0.00,,,0.00,weatherlink.com 1.10,2013-05-17 10:19:00,
2013-05-17 06:34:00,54.2,41.0,29.84,NNE,17,6.0,8.0,62,0.00,,,0.00,weatherlink.com 1.10,2013-05-17 10:34:00,
2013-05-17 06:49:00,55.7,41.0,29.85,WSW,244,4.0,13.0,58,0.00,,,0.00,weatherlink.com 1.10,2013-05-17 10:49:00,
2013-05-17 07:04:00,56.6,41.0,29.86,NE,42,1.0,9.0,57,0.00,,,0.00,weatherlink.com 1.10,2013-05-17 11:04:00,
2013-05-17 07:19:00,57.1,41.0,29.86,North,360,3.0,7.0,55,0.00,,,0.00,weatherlink.com 1.10,2013-05-17 11:19:00,
2013-05-17 07:34:00,58.4,42.0,29.87,West,268,3.0,9.0,55,0.00,,,0.00,weatherlink.com 1.10,2013-05-17 11:34:00,
2013-05-17 07:49:00,60.0,41.0,29.87,West,265,2.0,9.0,50,0.00,,,0.00,weatherlink.com 1.10,2013-05-17 11:49:00,
2013-05-17 08:04:00,61.1,42.0,29.88,NNW,340,2.0,11.0,49,0.00,,,0.00,weatherlink.com 1.10,2013-05-17 12:04:00,
2013-05-17 08:19:00,62.4,42.0,29.88,NNW,339,4.0,15.0,47,0.00,,,0.00,weatherlink.com 1.10,2013-05-17 12:19:00,
2013-05-17 08:34:00,63.1,42.0,29.88,NNW,346,5.0,11.0,47,0.00,,,0.00,weatherlink.com 1.10,2013-05-17 12:34:00,
2013-05-17 08:49:00,63.1,42.0,29.88,NE,37,9.0,17.0,46,0.00,,,0.00,weatherlink.com 1.10,2013-05-17 12:49:00,
2013-05-17 09:04:00,64.8,42.0,29.89,NE,53,1.0,11.0,44,0.00,,,0.00,weatherlink.com 1.10,2013-05-17 13:04:00,
2013-05-17 09:19:00,64.2,43.0,29.89,NNE,17,2.0,9.0,47,0.00,,,0.00,weatherlink.com 1.10,2013-05-17 13:19:00,
2013-05-17 09:34:00,63.5,42.0,29.89,NNE,12,3.0,11.0,46,0.00,,,0.00,weatherlink.com 1.10,2013-05-17 13:34:00,
2013-05-17 09:49:00,63.9,43.0,29.89,North,360,6.0,10.0,47,0.00,,,0.00,weatherlink.com 1.10,2013-05-17 13:49:00,
2013-05-17 10:04:00,64.9,42.0,29.89,NNE,20,8.0,12.0,44,0.00,,,0.00,weatherlink.com 1.10,2013-05-17 14:04:00,
2013-05-17 10:19:00,65.6,44.0,29.89,NNE,24,5.0,15.0,46,0.00,,,0.00,weatherlink.com 1.10,2013-05-17 14:19:00,
2013-05-17 10:34:00,66.0,43.0,29.89,North,360,6.0,16.0,43,0.00,,,0.00,weatherlink.com 1.10,2013-05-17 14:34:00,
2013-05-17 10:50:00,67.1,44.0,29.90,North,350,12.0,14.0,43,0.00,,,0.00,weatherlink.com 1.10,2013-05-17 14:50:00,
2013-05-17 11:04:00,66.8,43.0,29.91,NNE,21,6.0,11.0,43,0.00,,,0.00,weatherlink.com 1.10,2013-05-17 15:04:00,
2013-05-17 11:19:00,65.8,43.0,29.92,NNE,21,4.0,14.0,44,0.00,,,0.00,weatherlink.com 1.10,2013-05-17 15:19:00,
2013-05-17 11:34:00,67.0,44.0,29.92,WNW,292,5.0,16.0,43,0.00,,,0.00,weatherlink.com 1.10,2013-05-17 15:34:00,
2013-05-17 11:49:00,65.4,42.0,29.93,NNW,339,12.0,14.0,43,0.00,,,0.00,weatherlink.com 1.10,2013-05-17 15:49:00,
2013-05-17 12:04:00,65.6,43.0,29.93,North,355,5.0,15.0,44,0.00,,,0.00,weatherlink.com 1.10,2013-05-17 16:04:00,
2013-05-17 12:19:00,68.6,44.0,29.93,NNE,23,5.0,18.0,41,0.00,,,0.00,weatherlink.com 1.10,2013-05-17 16:19:00,
2013-05-17 12:35:00,68.6,44.0,29.93,East,82,3.0,10.0,41,0.00,,,0.00,weatherlink.com 1.10,2013-05-17 16:35:00,
2013-05-17 12:50:00,68.7,44.0,29.93,NNW,337,6.0,14.0,41,0.00,,,0.00,weatherlink.com 1.10,2013-05-17 16:50:00,
2013-05-17 13:05:00,68.5,42.0,29.93,North,5,7.0,13.0,39,0.00,,,0.00,weatherlink.com 1.10,2013-05-17 17:05:00,
2013-05-17 13:20:00,68.1,42.0,29.93,North,355,7.0,12.0,39,0.00,,,0.00,weatherlink.com 1.10,2013-05-17 17:20:00,
2013-05-17 13:35:00,68.0,44.0,29.93,NNE,20,8.0,14.0,42,0.00,,,0.00,weatherlink.com 1.10,2013-05-17 17:35:00,
2013-05-17 13:50:00,69.9,44.0,29.93,North,5,6.0,9.0,39,0.00,,,0.00,weatherlink.com 1.10,2013-05-17 17:50:00,
2013-05-17 14:05:00,70.6,44.0,29.93,NW,317,8.0,17.0,38,0.00,,,0.00,weatherlink.com 1.10,2013-05-17 18:05:00,
2013-05-17 14:20:00,71.0,43.0,29.93,NNE,15,5.0,13.0,37,0.00,,,0.00,weatherlink.com 1.10,2013-05-17 18:20:00,
2013-05-17 14:35:00,70.9,43.0,29.93,NNE,21,5.0,15.0,36,0.00,,,0.00,weatherlink.com 1.10,2013-05-17 18:35:00,
2013-05-17 14:50:00,71.6,43.0,29.93,NNE,13,6.0,12.0,36,0.00,,,0.00,weatherlink.com 1.10,2013-05-17 18:50:00,
2013-05-17 15:05:00,71.3,41.0,29.93,North,355,3.0,13.0,33,0.00,,,0.00,weatherlink.com 1.10,2013-05-17 19:05:00,
2013-05-17 15:20:00,72.4,41.0,29.93,NNE,31,4.0,10.0,32,0.00,,,0.00,weatherlink.com 1.10,2013-05-17 19:20:00,
2013-05-17 15:35:00,72.2,41.0,29.93,NNE,18,5.0,11.0,32,0.00,,,0.00,weatherlink.com 1.10,2013-05-17 19:35:00,
2013-05-17 15:50:00,72.4,40.0,29.93,NNE,28,4.0,9.0,31,0.00,,,0.00,weatherlink.com 1.10,2013-05-17 19:50:00,
2013-05-17 16:05:00,72.1,41.0,29.93,NNW,329,2.0,12.0,32,0.00,,,0.00,weatherlink.com 1.10,2013-05-17 20:05:00,
2013-05-17 16:20:00,71.5,40.0,29.94,NNE,13,5.0,16.0,32,0.00,,,0.00,weatherlink.com 1.10,2013-05-17 20:20:00,
2013-05-17 16:35:00,70.2,39.0,29.94,NNE,15,15.0,15.0,32,0.00,,,0.00,weatherlink.com 1.10,2013-05-17 20:35:00,
2013-05-17 16:50:00,69.4,38.0,29.95,NW,321,3.0,9.0,32,0.00,,,0.00,weatherlink.com 1.10,2013-05-17 20:50:00,
2013-05-17 17:05:00,69.2,40.0,29.96,NNE,19,4.0,12.0,34,0.00,,,0.00,weatherlink.com 1.10,2013-05-17 21:05:00,
2013-05-17 17:20:00,68.6,38.0,29.96,NNW,335,7.0,11.0,33,0.00,,,0.00,weatherlink.com 1.10,2013-05-17 21:20:00,
2013-05-17 17:35:00,67.5,38.0,29.97,NNW,332,4.0,12.0,34,0.00,,,0.00,weatherlink.com 1.10,2013-05-17 21:35:00,
2013-05-17 17:50:00,67.0,39.0,29.97,NW,324,4.0,6.0,36,0.00,,,0.00,weatherlink.com 1.10,2013-05-17 21:50:00,
2013-05-17 18:05:00,66.6,37.0,29.98,NNE,19,1.0,9.0,34,0.00,,,0.00,weatherlink.com 1.10,2013-05-17 22:05:00,
2013-05-17 18:20:00,66.4,36.0,29.98,North,350,4.0,10.0,33,0.00,,,0.00,weatherlink.com 1.10,2013-05-17 22:20:00,
2013-05-17 18:35:00,66.6,36.0,29.98,North,9,3.0,7.0,33,0.00,,,0.00,weatherlink.com 1.10,2013-05-17 22:35:00,
2013-05-17 18:50:00,66.2,37.0,29.99,NNE,23,2.0,8.0,34,0.00,,,0.00,weatherlink.com 1.10,2013-05-17 22:50:00,
2013-05-17 19:05:00,65.5,38.0,30.00,North,5,1.0,5.0,36,0.00,,,0.00,weatherlink.com 1.10,2013-05-17 23:05:00,
2013-05-17 19:20:00,64.8,37.0,30.01,NNW,338,0.0,7.0,36,0.00,,,0.00,weatherlink.com 1.10,2013-05-17 23:20:00,
2013-05-17 19:35:00,64.0,38.0,30.01,North,355,1.0,7.0,38,0.00,,,0.00,weatherlink.com 1.10,2013-05-17 23:35:00,
2013-05-17 19:50:00,63.2,38.0,30.02,NNW,338,0.0,3.0,39,0.00,,,0.00,weatherlink.com 1.10,2013-05-17 23:50:00,
2013-05-17 20:05:00,62.0,41.0,30.02,NNW,338,0.0,0.0,46,0.00,,,0.00,weatherlink.com 1.10,2013-05-18 00:05:00,
2013-05-17 20:20:00,60.2,40.0,30.03,NNW,338,0.0,1.0,48,0.00,,,0.00,weatherlink.com 1.10,2013-05-18 00:20:00,
2013-05-17 20:35:00,58.9,41.0,30.04,NNW,338,0.0,0.0,51,0.00,,,0.00,weatherlink.com 1.10,2013-05-18 00:35:00,
2013-05-17 20:50:00,57.8,42.0,30.05,NNW,338,0.0,0.0,55,0.00,,,0.00,weatherlink.com 1.10,2013-05-18 00:50:00,
2013-05-17 21:05:00,56.5,41.0,30.05,NNW,338,1.0,1.0,56,0.00,,,0.00,weatherlink.com 1.10,2013-05-18 01:05:00,
2013-05-17 21:20:00,55.2,42.0,30.06,NNW,338,0.0,1.0,61,0.00,,,0.00,weatherlink.com 1.10,2013-05-18 01:20:00,
2013-05-17 21:36:00,54.4,42.0,30.07,NNW,338,0.0,0.0,64,0.00,,,0.00,weatherlink.com 1.10,2013-05-18 01:36:00,
2013-05-17 21:51:00,53.0,42.0,30.08,NNW,338,0.0,1.0,67,0.00,,,0.00,weatherlink.com 1.10,2013-05-18 01:51:00,
2013-05-17 22:06:00,52.3,42.0,30.08,NNW,338,0.0,0.0,69,0.00,,,0.00,weatherlink.com 1.10,2013-05-18 02:06:00,
2013-05-17 22:21:00,51.5,42.0,30.09,NNW,338,0.0,0.0,71,0.00,,,0.00,weatherlink.com 1.10,2013-05-18 02:21:00,
2013-05-17 22:36:00,50.6,42.0,30.09,NNW,338,0.0,0.0,73,0.00,,,0.00,weatherlink.com 1.10,2013-05-18 02:36:00,
2013-05-17 22:51:00,49.8,42.0,30.09,NNW,338,0.0,0.0,75,0.00,,,0.00,weatherlink.com 1.10,2013-05-18 02:51:00,
2013-05-17 23:06:00,49.1,42.0,30.09,NNW,338,0.0,0.0,77,0.00,,,0.00,weatherlink.com 1.10,2013-05-18 03:06:00,
2013-05-17 23:21:00,48.7,42.0,30.09,NNW,338,0.0,0.0,79,0.00,,,0.00,weatherlink.com 1.10,2013-05-18 03:21:00,
2013-05-17 23:36:00,47.9,42.0,30.10,NNW,338,0.0,0.0,80,0.00,,,0.00,weatherlink.com 1.10,2013-05-18 03:36:00,
2013-05-17 23:51:00,47.6,42.0,30.10,NNW,338,0.0,0.0,81,0.00,,,0.00,weatherlink.com 1.10,2013-05-18 03:51:00,